Torna al catalogo

STARLINK-36718

AttivoComunicazioniSSO
NORAD 67715·PAYLOAD·🇺🇸 United States

Lanciato Feb 7, 2026 da Vandenberg Space Force Base

Loading…

Prossimi Passaggi (prossime 24 ore)

TLE

AggiornatoSource: CelesTrak SupGP

Epoca: Sep 14, 2026, 21:24 UTC

1 67715C 26025Y   26257.89215278 -.00030961  00000+0 -96071-3 0  2578
2 67715  97.2853   7.8777 0000862  99.3986   2.1222 15.33468688    10

Traccia STARLINK-36718 in tempo reale con AllMySat

Download on the App Store